Location: New Plymouth
(39.0670°S, 174.0830°E)
Time: 16:28:27
(UTC+12:00)

ADEOS Rocket - Pass Details

Date: 24 January 2019
Orbit: 858 x 1307 km, 98.7° (Epoch: 17 April)

Event Time Altitude Azimuth Distance (km) Brightness Sun altitude
Exits shadow 21:18:51 - 56° (NE) 2,778 4.7 -6.4°
Reaches altitude 10° 21:19:31 10° 59° (ENE) 2,553 4.5 -6.5°
Maximum altitude 21:24:05 26° 114° (ESE) 1,645 3.9 -7.3°
Drops below altitude 10° 21:28:35 10° 169° (S) 2,528 5.5 -8.0°
Sets 21:31:19 0° 181° (S) 3,484 6.4 -8.4°
